2020,11,22,00,00,00,125.2,,,,,,,,,,,,,,
2020,11,22,00,01,00,,,,,,,,,,,,,,,
2020,11,22,00,02,00,122.7,,,,,,,,,,,,,,
2020,11,22,00,03,00,116.0,,,,,,,,,,,,,,
2020,11,22,00,04,00,113.2,,,,,,,,,,,,,,
2020,11,22,00,05,00,113.8,,,,,,,,,,,,,,
2020,11,22,00,06,00,111.9,,,,,,,,,,,,,,
2020,11,22,00,07,00,110.7,,,,,,,,,,,,,,
2020,11,22,00,08,00,112.4,,,,,,,,,,,,,,
2020,11,22,00,09,00,115.8,,,,,,,,,,,,,,
2020,11,22,00,10,00,124.0,,,,,,,,,,,,,,
2020,11,22,00,11,00,122.0,,,,,,,,,,,,,,
2020,11,22,00,12,00,132.1,,,,,,,,,,,,,,
2020,11,22,00,13,00,130.2,,,,,,,,,,,,,,
2020,11,22,00,14,00,123.8,,,,,,,,,,,,,,
2020,11,22,00,15,00,117.0,,,,,,,,,,,,,,
2020,11,22,00,16,00,115.7,,,,,,,,,,,,,,
2020,11,22,00,17,00,111.0,,,,,,,,,,,,,,
2020,11,22,00,18,00,109.1,,,,,,,,,,,,,,
2020,11,22,00,19,00,112.6,,,,,,,,,,,,,,
2020,11,22,00,20,00,118.6,,,,,,,,,,,,,,
2020,11,22,00,21,00,120.3,,,,,,,,,,,,,,
2020,11,22,00,22,00,117.9,,,,,,,,,,,,,,
2020,11,22,00,23,00,115.5,,,,,,,,,,,,,,
2020,11,22,00,24,00,115.4,,,,,,,,,,,,,,
2020,11,22,00,25,00,115.2,,,,,,,,,,,,,,
2020,11,22,00,26,00,114.8,,,,,,,,,,,,,,
2020,11,22,00,27,00,115.1,,,,,,,,,,,,,,
2020,11,22,00,28,00,114.0,,,,,,,,,,,,,,
2020,11,22,00,29,00,114.4,,,,,,,,,,,,,,
2020,11,22,00,30,00,114.8,,,,,,,,,,,,,,
2020,11,22,00,31,00,107.4,,,,,,,,,,,,,,
2020,11,22,00,32,00,103.4,,,,,,,,,,,,,,
2020,11,22,00,33,00,100.9,,,,,,,,,,,,,,
2020,11,22,00,34,00,100.9,,,,,,,,,,,,,,
2020,11,22,00,35,00,102.2,,,,,,,,,,,,,,
2020,11,22,00,36,00,99.9,,,,,,,,,,,,,,
2020,11,22,00,37,00,99.9,,,,,,,,,,,,,,
2020,11,22,00,38,00,99.6,,,,,,,,,,,,,,
2020,11,22,00,39,00,99.8,,,,,,,,,,,,,,
2020,11,22,00,40,00,99.6,,,,,,,,,,,,,,
2020,11,22,00,41,00,99.8,,,,,,,,,,,,,,
2020,11,22,00,42,00,103.1,,,,,,,,,,,,,,
2020,11,22,00,43,00,107.9,,,,,,,,,,,,,,
2020,11,22,00,44,00,101.6,,,,,,,,,,,,,,
2020,11,22,00,45,00,101.2,,,,,,,,,,,,,,
2020,11,22,00,46,00,100.8,,,,,,,,,,,,,,
2020,11,22,00,47,00,100.4,,,,,,,,,,,,,,
2020,11,22,00,48,00,99.4,,,,,,,,,,,,,,
2020,11,22,00,49,00,100.4,,,,,,,,,,,,,,
2020,11,22,00,50,00,101.1,,,,,,,,,,,,,,
2020,11,22,00,51,00,99.9,,,,,,,,,,,,,,
2020,11,22,00,52,00,100.0,,,,,,,,,,,,,,
2020,11,22,00,53,00,100.5,,,,,,,,,,,,,,
2020,11,22,00,54,00,100.9,,,,,,,,,,,,,,
2020,11,22,00,55,00,101.4,,,,,,,,,,,,,,
2020,11,22,00,56,00,101.1,,,,,,,,,,,,,,
2020,11,22,00,57,00,103.0,,,,,,,,,,,,,,
2020,11,22,00,58,00,107.2,,,,,,,,,,,,,,
2020,11,22,00,59,00,105.6,,,,,,,,,,,,,,
2020,11,22,01,00,00,107.6,,,,,,,,,,,,,,
2020,11,22,01,01,00,106.4,,,,,,,,,,,,,,
2020,11,22,01,02,00,108.7,,,,,,,,,,,,,,
2020,11,22,01,03,00,114.5,,,,,,,,,,,,,,
2020,11,22,01,04,00,114.5,,,,,,,,,,,,,,
2020,11,22,01,05,00,105.3,,,,,,,,,,,,,,
2020,11,22,01,06,00,106.3,,,,,,,,,,,,,,
2020,11,22,01,07,00,109.1,,,,,,,,,,,,,,
2020,11,22,01,08,00,109.6,,,,,,,,,,,,,,
2020,11,22,01,09,00,108.4,,,,,,,,,,,,,,
2020,11,22,01,10,00,105.0,,,,,,,,,,,,,,
2020,11,22,01,11,00,108.3,,,,,,,,,,,,,,
2020,11,22,01,12,00,108.9,,,,,,,,,,,,,,
2020,11,22,01,13,00,110.1,,,,,,,,,,,,,,
2020,11,22,01,14,00,113.4,,,,,,,,,,,,,,
2020,11,22,01,15,00,113.0,,,,,,,,,,,,,,
2020,11,22,01,16,00,115.5,,,,,,,,,,,,,,
2020,11,22,01,17,00,117.3,,,,,,,,,,,,,,
2020,11,22,01,18,00,120.9,,,,,,,,,,,,,,
2020,11,22,01,19,00,119.6,,,,,,,,,,,,,,
2020,11,22,01,20,00,116.6,,,,,,,,,,,,,,
2020,11,22,01,21,00,116.2,,,,,,,,,,,,,,
2020,11,22,01,22,00,116.6,,,,,,,,,,,,,,
2020,11,22,01,23,00,116.9,,,,,,,,,,,,,,
2020,11,22,01,24,00,117.2,,,,,,,,,,,,,,
2020,11,22,01,25,00,115.2,,,,,,,,,,,,,,
2020,11,22,01,26,00,116.0,,,,,,,,,,,,,,
2020,11,22,01,27,00,118.4,,,,,,,,,,,,,,
2020,11,22,01,28,00,119.6,,,,,,,,,,,,,,
2020,11,22,01,29,00,120.0,,,,,,,,,,,,,,
2020,11,22,01,30,00,121.5,,,,,,,,,,,,,,
2020,11,22,01,31,00,123.0,,,,,,,,,,,,,,
2020,11,22,01,32,00,123.9,,,,,,,,,,,,,,
2020,11,22,01,33,00,121.4,,,,,,,,,,,,,,
2020,11,22,01,34,00,126.5,,,,,,,,,,,,,,
2020,11,22,01,35,00,135.8,,,,,,,,,,,,,,
2020,11,22,01,36,00,134.8,,,,,,,,,,,,,,
2020,11,22,01,37,00,124.3,,,,,,,,,,,,,,
2020,11,22,01,38,00,119.0,,,,,,,,,,,,,,
2020,11,22,01,39,00,120.9,,,,,,,,,,,,,,
2020,11,22,01,40,00,120.4,,,,,,,,,,,,,,
2020,11,22,01,41,00,123.6,,,,,,,,,,,,,,
2020,11,22,01,42,00,121.4,,,,,,,,,,,,,,
2020,11,22,01,43,00,118.6,,,,,,,,,,,,,,
2020,11,22,01,44,00,118.0,,,,,,,,,,,,,,
2020,11,22,01,45,00,121.6,,,,,,,,,,,,,,
2020,11,22,01,46,00,123.6,,,,,,,,,,,,,,
2020,11,22,01,47,00,117.8,,,,,,,,,,,,,,
2020,11,22,01,48,00,120.8,,,,,,,,,,,,,,
2020,11,22,01,49,00,126.8,,,,,,,,,,,,,,
2020,11,22,01,50,00,125.3,,,,,,,,,,,,,,
2020,11,22,01,51,00,121.1,,,,,,,,,,,,,,
2020,11,22,01,52,00,122.7,,,,,,,,,,,,,,
2020,11,22,01,53,00,123.0,,,,,,,,,,,,,,
2020,11,22,01,54,00,123.0,,,,,,,,,,,,,,
2020,11,22,01,55,00,119.5,,,,,,,,,,,,,,
2020,11,22,01,56,00,116.1,,,,,,,,,,,,,,
2020,11,22,01,57,00,115.7,,,,,,,,,,,,,,
2020,11,22,01,58,00,115.2,,,,,,,,,,,,,,
2020,11,22,01,59,00,115.1,,,,,,,,,,,,,,
2020,11,22,02,00,00,114.5,,,,,,,,,,,,,,
2020,11,22,02,01,00,116.7,,,,,,,,,,,,,,
2020,11,22,02,02,00,117.1,,,,,,,,,,,,,,
2020,11,22,02,03,00,117.6,,,,,,,,,,,,,,
2020,11,22,02,04,00,120.2,,,,,,,,,,,,,,
2020,11,22,02,05,00,119.6,,,,,,,,,,,,,,
2020,11,22,02,06,00,114.9,,,,,,,,,,,,,,
2020,11,22,02,07,00,116.0,,,,,,,,,,,,,,
2020,11,22,02,08,00,125.6,,,,,,,,,,,,,,
2020,11,22,02,09,00,135.7,,,,,,,,,,,,,,
2020,11,22,02,10,00,124.7,,,,,,,,,,,,,,
2020,11,22,02,11,00,118.8,,,,,,,,,,,,,,
2020,11,22,02,12,00,112.6,,,,,,,,,,,,,,
2020,11,22,02,13,00,108.8,,,,,,,,,,,,,,
2020,11,22,02,14,00,109.2,,,,,,,,,,,,,,
2020,11,22,02,15,00,111.3,,,,,,,,,,,,,,
2020,11,22,02,16,00,113.4,,,,,,,,,,,,,,
2020,11,22,02,17,00,120.3,,,,,,,,,,,,,,
2020,11,22,02,18,00,129.3,,,,,,,,,,,,,,
2020,11,22,02,19,00,125.0,,,,,,,,,,,,,,
2020,11,22,02,20,00,120.2,,,,,,,,,,,,,,
2020,11,22,02,21,00,111.7,,,,,,,,,,,,,,
2020,11,22,02,22,00,109.9,,,,,,,,,,,,,,
2020,11,22,02,23,00,109.6,,,,,,,,,,,,,,
2020,11,22,02,24,00,111.4,,,,,,,,,,,,,,
2020,11,22,02,25,00,111.3,,,,,,,,,,,,,,
2020,11,22,02,26,00,111.6,,,,,,,,,,,,,,
2020,11,22,02,27,00,110.9,,,,,,,,,,,,,,
2020,11,22,02,28,00,110.3,,,,,,,,,,,,,,
2020,11,22,02,29,00,115.5,,,,,,,,,,,,,,
2020,11,22,02,30,00,115.1,,,,,,,,,,,,,,
2020,11,22,02,31,00,109.6,,,,,,,,,,,,,,
2020,11,22,02,32,00,112.2,,,,,,,,,,,,,,
2020,11,22,02,33,00,112.7,,,,,,,,,,,,,,
2020,11,22,02,34,00,112.5,,,,,,,,,,,,,,
2020,11,22,02,35,00,116.8,,,,,,,,,,,,,,
2020,11,22,02,36,00,120.9,,,,,,,,,,,,,,
2020,11,22,02,37,00,120.0,,,,,,,,,,,,,,
2020,11,22,02,38,00,120.9,,,,,,,,,,,,,,
2020,11,22,02,39,00,116.7,,,,,,,,,,,,,,
2020,11,22,02,40,00,112.2,,,,,,,,,,,,,,
2020,11,22,02,41,00,113.4,,,,,,,,,,,,,,
2020,11,22,02,42,00,115.5,,,,,,,,,,,,,,
2020,11,22,02,43,00,118.7,,,,,,,,,,,,,,
2020,11,22,02,44,00,118.9,,,,,,,,,,,,,,
2020,11,22,02,45,00,116.8,,,,,,,,,,,,,,
2020,11,22,02,46,00,118.1,,,,,,,,,,,,,,
2020,11,22,02,47,00,122.3,,,,,,,,,,,,,,
2020,11,22,02,48,00,126.3,,,,,,,,,,,,,,
2020,11,22,02,49,00,123.2,,,,,,,,,,,,,,
2020,11,22,02,50,00,121.0,,,,,,,,,,,,,,
2020,11,22,02,51,00,118.6,,,,,,,,,,,,,,
2020,11,22,02,52,00,120.5,,,,,,,,,,,,,,
2020,11,22,02,53,00,121.8,,,,,,,,,,,,,,
2020,11,22,02,54,00,120.3,,,,,,,,,,,,,,
2020,11,22,02,55,00,124.6,,,,,,,,,,,,,,
2020,11,22,02,56,00,123.2,,,,,,,,,,,,,,
2020,11,22,02,57,00,124.6,,,,,,,,,,,,,,
2020,11,22,02,58,00,128.2,,,,,,,,,,,,,,
2020,11,22,02,59,00,124.8,,,,,,,,,,,,,,
2020,11,22,03,00,00,121.5,,,,,,,,,,,,,,
2020,11,22,03,01,00,119.7,,,,,,,,,,,,,,
2020,11,22,03,02,00,121.3,,,,,,,,,,,,,,
2020,11,22,03,03,00,121.5,,,,,,,,,,,,,,
2020,11,22,03,04,00,118.6,,,,,,,,,,,,,,
2020,11,22,03,05,00,121.4,,,,,,,,,,,,,,
2020,11,22,03,06,00,118.4,,,,,,,,,,,,,,
2020,11,22,03,07,00,121.1,,,,,,,,,,,,,,
2020,11,22,03,08,00,122.5,,,,,,,,,,,,,,
2020,11,22,03,09,00,123.0,,,,,,,,,,,,,,
2020,11,22,03,10,00,128.6,,,,,,,,,,,,,,
2020,11,22,03,11,00,124.6,,,,,,,,,,,,,,
2020,11,22,03,12,00,124.8,,,,,,,,,,,,,,
2020,11,22,03,13,00,125.0,,,,,,,,,,,,,,
2020,11,22,03,14,00,124.8,,,,,,,,,,,,,,
2020,11,22,03,15,00,125.4,,,,,,,,,,,,,,
2020,11,22,03,16,00,125.5,,,,,,,,,,,,,,
2020,11,22,03,17,00,123.5,,,,,,,,,,,,,,
2020,11,22,03,18,00,124.8,,,,,,,,,,,,,,
2020,11,22,03,19,00,135.0,,,,,,,,,,,,,,
2020,11,22,03,20,00,144.6,,,,,,,,,,,,,,
2020,11,22,03,21,00,143.5,,,,,,,,,,,,,,
2020,11,22,03,22,00,134.4,,,,,,,,,,,,,,
2020,11,22,03,23,00,138.2,,,,,,,,,,,,,,
2020,11,22,03,24,00,131.2,,,,,,,,,,,,,,
2020,11,22,03,25,00,132.2,,,,,,,,,,,,,,
2020,11,22,03,26,00,135.2,,,,,,,,,,,,,,
2020,11,22,03,27,00,139.9,,,,,,,,,,,,,,
2020,11,22,03,28,00,136.3,,,,,,,,,,,,,,
2020,11,22,03,29,00,131.8,,,,,,,,,,,,,,
2020,11,22,03,30,00,129.7,,,,,,,,,,,,,,
2020,11,22,03,31,00,135.3,,,,,,,,,,,,,,
2020,11,22,03,32,00,134.8,,,,,,,,,,,,,,
2020,11,22,03,33,00,137.2,,,,,,,,,,,,,,
2020,11,22,03,34,00,135.3,,,,,,,,,,,,,,
2020,11,22,03,35,00,137.3,,,,,,,,,,,,,,
2020,11,22,03,36,00,133.8,,,,,,,,,,,,,,
2020,11,22,03,37,00,133.5,,,,,,,,,,,,,,
2020,11,22,03,38,00,139.7,,,,,,,,,,,,,,
2020,11,22,03,39,00,138.1,,,,,,,,,,,,,,
2020,11,22,03,40,00,135.7,,,,,,,,,,,,,,
2020,11,22,03,41,00,126.9,,,,,,,,,,,,,,
2020,11,22,03,42,00,123.9,,,,,,,,,,,,,,
2020,11,22,03,43,00,124.4,,,,,,,,,,,,,,
2020,11,22,03,44,00,127.7,,,,,,,,,,,,,,
2020,11,22,03,45,00,142.7,,,,,,,,,,,,,,
2020,11,22,03,46,00,135.8,,,,,,,,,,,,,,
2020,11,22,03,47,00,136.2,,,,,,,,,,,,,,
2020,11,22,03,48,00,133.1,,,,,,,,,,,,,,
2020,11,22,03,49,00,126.8,,,,,,,,,,,,,,
2020,11,22,03,50,00,127.8,,,,,,,,,,,,,,
2020,11,22,03,51,00,134.2,,,,,,,,,,,,,,
2020,11,22,03,52,00,152.6,,,,,,,,,,,,,,
2020,11,22,03,53,00,135.7,,,,,,,,,,,,,,
2020,11,22,03,54,00,135.1,,,,,,,,,,,,,,
2020,11,22,03,55,00,139.6,,,,,,,,,,,,,,
2020,11,22,03,56,00,131.8,,,,,,,,,,,,,,
2020,11,22,03,57,00,134.9,,,,,,,,,,,,,,
2020,11,22,03,58,00,141.5,,,,,,,,,,,,,,
2020,11,22,03,59,00,149.8,,,,,,,,,,,,,,
2020,11,22,04,00,00,145.5,,,,,,,,,,,,,,
2020,11,22,04,01,00,151.5,,,,,,,,,,,,,,
2020,11,22,04,02,00,150.4,,,,,,,,,,,,,,
2020,11,22,04,03,00,138.9,,,,,,,,,,,,,,
2020,11,22,04,04,00,137.1,,,,,,,,,,,,,,
2020,11,22,04,05,00,140.6,,,,,,,,,,,,,,
2020,11,22,04,06,00,141.8,,,,,,,,,,,,,,
2020,11,22,04,07,00,146.0,,,,,,,,,,,,,,
2020,11,22,04,08,00,145.7,,,,,,,,,,,,,,
2020,11,22,04,09,00,144.0,,,,,,,,,,,,,,
2020,11,22,04,10,00,138.0,,,,,,,,,,,,,,
2020,11,22,04,11,00,134.6,,,,,,,,,,,,,,
2020,11,22,04,12,00,136.4,,,,,,,,,,,,,,
2020,11,22,04,13,00,130.1,,,,,,,,,,,,,,
2020,11,22,04,14,00,125.4,,,,,,,,,,,,,,
2020,11,22,04,15,00,125.4,,,,,,,,,,,,,,
2020,11,22,04,16,00,127.7,,,,,,,,,,,,,,
2020,11,22,04,17,00,138.3,,,,,,,,,,,,,,
2020,11,22,04,18,00,150.0,,,,,,,,,,,,,,
2020,11,22,04,19,00,149.0,,,,,,,,,,,,,,
2020,11,22,04,20,00,140.7,,,,,,,,,,,,,,
2020,11,22,04,21,00,128.0,,,,,,,,,,,,,,
2020,11,22,04,22,00,126.7,,,,,,,,,,,,,,
2020,11,22,04,23,00,126.9,,,,,,,,,,,,,,
2020,11,22,04,24,00,125.6,,,,,,,,,,,,,,
2020,11,22,04,25,00,126.4,,,,,,,,,,,,,,
2020,11,22,04,26,00,126.0,,,,,,,,,,,,,,
2020,11,22,04,27,00,130.1,,,,,,,,,,,,,,
2020,11,22,04,28,00,136.5,,,,,,,,,,,,,,
2020,11,22,04,29,00,129.1,,,,,,,,,,,,,,
2020,11,22,04,30,00,128.5,,,,,,,,,,,,,,
2020,11,22,04,31,00,130.1,,,,,,,,,,,,,,
2020,11,22,04,32,00,135.1,,,,,,,,,,,,,,
2020,11,22,04,33,00,134.4,,,,,,,,,,,,,,
2020,11,22,04,34,00,135.3,,,,,,,,,,,,,,
2020,11,22,04,35,00,133.6,,,,,,,,,,,,,,
2020,11,22,04,36,00,127.0,,,,,,,,,,,,,,
2020,11,22,04,37,00,126.6,,,,,,,,,,,,,,
2020,11,22,04,38,00,127.2,,,,,,,,,,,,,,
2020,11,22,04,39,00,128.7,,,,,,,,,,,,,,
2020,11,22,04,40,00,125.9,,,,,,,,,,,,,,
2020,11,22,04,41,00,126.1,,,,,,,,,,,,,,
2020,11,22,04,42,00,136.8,,,,,,,,,,,,,,
2020,11,22,04,43,00,133.0,,,,,,,,,,,,,,
2020,11,22,04,44,00,146.0,,,,,,,,,,,,,,
2020,11,22,04,45,00,138.7,,,,,,,,,,,,,,
2020,11,22,04,46,00,133.9,,,,,,,,,,,,,,
2020,11,22,04,47,00,126.8,,,,,,,,,,,,,,
2020,11,22,04,48,00,128.5,,,,,,,,,,,,,,
2020,11,22,04,49,00,128.4,,,,,,,,,,,,,,
2020,11,22,04,50,00,131.1,,,,,,,,,,,,,,
2020,11,22,04,51,00,131.9,,,,,,,,,,,,,,
2020,11,22,04,52,00,138.8,,,,,,,,,,,,,,
2020,11,22,04,53,00,158.3,,,,,,,,,,,,,,
2020,11,22,04,54,00,157.5,,,,,,,,,,,,,,
2020,11,22,04,55,00,131.3,,,,,,,,,,,,,,
2020,11,22,04,56,00,123.8,,,,,,,,,,,,,,
2020,11,22,04,57,00,125.6,,,,,,,,,,,,,,
2020,11,22,04,58,00,126.9,,,,,,,,,,,,,,
2020,11,22,04,59,00,128.9,,,,,,,,,,,,,,
2020,11,22,05,00,00,131.7,,,,,,,,,,,,,,
2020,11,22,05,01,00,130.7,,,,,,,,,,,,,,
2020,11,22,05,02,00,138.9,,,,,,,,,,,,,,
2020,11,22,05,03,00,134.5,,,,,,,,,,,,,,
2020,11,22,05,04,00,127.8,,,,,,,,,,,,,,
2020,11,22,05,05,00,135.0,,,,,,,,,,,,,,
2020,11,22,05,06,00,133.9,,,,,,,,,,,,,,
2020,11,22,05,07,00,128.7,,,,,,,,,,,,,,
2020,11,22,05,08,00,129.9,,,,,,,,,,,,,,
2020,11,22,05,09,00,127.9,,,,,,,,,,,,,,
2020,11,22,05,10,00,125.7,,,,,,,,,,,,,,
2020,11,22,05,11,00,128.4,,,,,,,,,,,,,,
2020,11,22,05,12,00,125.7,,,,,,,,,,,,,,
2020,11,22,05,13,00,126.5,,,,,,,,,,,,,,
2020,11,22,05,14,00,130.5,,,,,,,,,,,,,,
2020,11,22,05,15,00,133.6,,,,,,,,,,,,,,
2020,11,22,05,16,00,135.7,,,,,,,,,,,,,,
2020,11,22,05,17,00,131.3,,,,,,,,,,,,,,
2020,11,22,05,18,00,126.7,,,,,,,,,,,,,,
2020,11,22,05,19,00,126.9,,,,,,,,,,,,,,
2020,11,22,05,20,00,130.1,,,,,,,,,,,,,,
2020,11,22,05,21,00,130.5,,,,,,,,,,,,,,
2020,11,22,05,22,00,129.3,,,,,,,,,,,,,,
2020,11,22,05,23,00,128.6,,,,,,,,,,,,,,
2020,11,22,05,24,00,130.2,,,,,,,,,,,,,,
2020,11,22,05,25,00,137.8,,,,,,,,,,,,,,
2020,11,22,05,26,00,138.2,,,,,,,,,,,,,,
2020,11,22,05,27,00,137.8,,,,,,,,,,,,,,
2020,11,22,05,28,00,142.7,,,,,,,,,,,,,,
2020,11,22,05,29,00,141.4,,,,,,,,,,,,,,
2020,11,22,05,30,00,143.6,,,,,,,,,,,,,,
2020,11,22,05,31,00,141.2,,,,,,,,,,,,,,
2020,11,22,05,32,00,140.1,,,,,,,,,,,,,,
2020,11,22,05,33,00,140.8,,,,,,,,,,,,,,
2020,11,22,05,34,00,142.5,,,,,,,,,,,,,,
2020,11,22,05,35,00,142.0,,,,,,,,,,,,,,
2020,11,22,05,36,00,139.3,,,,,,,,,,,,,,
2020,11,22,05,37,00,137.8,,,,,,,,,,,,,,
2020,11,22,05,38,00,138.0,,,,,,,,,,,,,,
2020,11,22,05,39,00,138.7,,,,,,,,,,,,,,
2020,11,22,05,40,00,137.9,,,,,,,,,,,,,,
2020,11,22,05,41,00,136.8,,,,,,,,,,,,,,
2020,11,22,05,42,00,136.7,,,,,,,,,,,,,,
2020,11,22,05,43,00,136.3,,,,,,,,,,,,,,
2020,11,22,05,44,00,136.0,,,,,,,,,,,,,,
2020,11,22,05,45,00,136.1,,,,,,,,,,,,,,
2020,11,22,05,46,00,136.5,,,,,,,,,,,,,,
2020,11,22,05,47,00,136.1,,,,,,,,,,,,,,
2020,11,22,05,48,00,139.0,,,,,,,,,,,,,,
2020,11,22,05,49,00,145.1,,,,,,,,,,,,,,
2020,11,22,05,50,00,136.6,,,,,,,,,,,,,,
2020,11,22,05,51,00,126.4,,,,,,,,,,,,,,
2020,11,22,05,52,00,125.8,,,,,,,,,,,,,,
2020,11,22,05,53,00,129.1,,,,,,,,,,,,,,
2020,11,22,05,54,00,133.0,,,,,,,,,,,,,,
2020,11,22,05,55,00,142.6,,,,,,,,,,,,,,
2020,11,22,05,56,00,138.0,,,,,,,,,,,,,,
2020,11,22,05,57,00,134.0,,,,,,,,,,,,,,
2020,11,22,05,58,00,139.9,,,,,,,,,,,,,,
2020,11,22,05,59,00,145.9,,,,,,,,,,,,,,
2020,11,22,06,00,00,143.3,,,,,,,,,,,,,,
2020,11,22,06,01,00,137.2,,,,,,,,,,,,,,
2020,11,22,06,02,00,147.5,,,,,,,,,,,,,,
2020,11,22,06,03,00,151.5,,,,,,,,,,,,,,
2020,11,22,06,04,00,138.4,,,,,,,,,,,,,,
2020,11,22,06,05,00,129.2,,,,,,,,,,,,,,
2020,11,22,06,06,00,126.6,,,,,,,,,,,,,,
2020,11,22,06,07,00,125.7,,,,,,,,,,,,,,
2020,11,22,06,08,00,125.5,,,,,,,,,,,,,,
2020,11,22,06,09,00,136.7,,,,,,,,,,,,,,
2020,11,22,06,10,00,147.4,,,,,,,,,,,,,,
2020,11,22,06,11,00,145.4,,,,,,,,,,,,,,
2020,11,22,06,12,00,133.1,,,,,,,,,,,,,,
2020,11,22,06,13,00,131.8,,,,,,,,,,,,,,
2020,11,22,06,14,00,129.7,,,,,,,,,,,,,,
2020,11,22,06,15,00,131.5,,,,,,,,,,,,,,
2020,11,22,06,16,00,131.5,,,,,,,,,,,,,,
2020,11,22,06,17,00,130.9,,,,,,,,,,,,,,
2020,11,22,06,18,00,130.0,,,,,,,,,,,,,,
2020,11,22,06,19,00,131.8,,,,,,,,,,,,,,
2020,11,22,06,20,00,134.7,,,,,,,,,,,,,,
2020,11,22,06,21,00,135.8,,,,,,,,,,,,,,
2020,11,22,06,22,00,136.7,,,,,,,,,,,,,,
2020,11,22,06,23,00,136.8,,,,,,,,,,,,,,
2020,11,22,06,24,00,134.9,,,,,,,,,,,,,,
2020,11,22,06,25,00,137.9,,,,,,,,,,,,,,
2020,11,22,06,26,00,147.9,,,,,,,,,,,,,,
2020,11,22,06,27,00,150.1,,,,,,,,,,,,,,
2020,11,22,06,28,00,149.5,,,,,,,,,,,,,,
2020,11,22,06,29,00,142.6,,,,,,,,,,,,,,
2020,11,22,06,30,00,147.5,,,,,,,,,,,,,,
2020,11,22,06,31,00,145.0,,,,,,,,,,,,,,
2020,11,22,06,32,00,142.2,,,,,,,,,,,,,,
2020,11,22,06,33,00,142.5,,,,,,,,,,,,,,
2020,11,22,06,34,00,151.6,,,,,,,,,,,,,,
2020,11,22,06,35,00,153.2,,,,,,,,,,,,,,
2020,11,22,06,36,00,147.0,,,,,,,,,,,,,,
2020,11,22,06,37,00,145.1,,,,,,,,,,,,,,
2020,11,22,06,38,00,145.1,,,,,,,,,,,,,,
2020,11,22,06,39,00,149.0,,,,,,,,,,,,,,
2020,11,22,06,40,00,163.0,,,,,,,,,,,,,,
2020,11,22,06,41,00,170.1,,,,,,,,,,,,,,
2020,11,22,06,42,00,173.3,,,,,,,,,,,,,,
2020,11,22,06,43,00,151.1,,,,,,,,,,,,,,
2020,11,22,06,44,00,140.6,,,,,,,,,,,,,,
2020,11,22,06,45,00,133.5,,,,,,,,,,,,,,
2020,11,22,06,46,00,138.3,,,,,,,,,,,,,,
2020,11,22,06,47,00,140.2,,,,,,,,,,,,,,
2020,11,22,06,48,00,140.2,,,,,,,,,,,,,,
2020,11,22,06,49,00,136.8,,,,,,,,,,,,,,
2020,11,22,06,50,00,134.3,,,,,,,,,,,,,,
2020,11,22,06,51,00,136.2,,,,,,,,,,,,,,
2020,11,22,06,52,00,141.2,,,,,,,,,,,,,,
2020,11,22,06,53,00,138.9,,,,,,,,,,,,,,
2020,11,22,06,54,00,135.6,,,,,,,,,,,,,,
2020,11,22,06,55,00,144.8,,,,,,,,,,,,,,
2020,11,22,06,56,00,147.2,,,,,,,,,,,,,,
2020,11,22,06,57,00,165.1,,,,,,,,,,,,,,
2020,11,22,06,58,00,171.1,,,,,,,,,,,,,,
2020,11,22,06,59,00,171.2,,,,,,,,,,,,,,
2020,11,22,07,00,00,199.0,,,,,,,,,,,,,,
2020,11,22,07,01,00,187.9,,,,,,,,,,,,,,
2020,11,22,07,02,00,185.4,,,,,,,,,,,,,,
2020,11,22,07,03,00,195.6,,,,,,,,,,,,,,
2020,11,22,07,04,00,176.1,,,,,,,,,,,,,,
2020,11,22,07,05,00,160.2,,,,,,,,,,,,,,
2020,11,22,07,06,00,151.9,,,,,,,,,,,,,,
2020,11,22,07,07,00,151.3,,,,,,,,,,,,,,
2020,11,22,07,08,00,149.9,,,,,,,,,,,,,,
2020,11,22,07,09,00,150.1,,,,,,,,,,,,,,
2020,11,22,07,10,00,166.5,,,,,,,,,,,,,,
2020,11,22,07,11,00,200.8,,,,,,,,,,,,,,
2020,11,22,07,12,00,203.8,,,,,,,,,,,,,,
2020,11,22,07,13,00,201.2,,,,,,,,,,,,,,
2020,11,22,07,14,00,215.2,,,,,,,,,,,,,,
2020,11,22,07,15,00,195.5,,,,,,,,,,,,,,
2020,11,22,07,16,00,200.6,,,,,,,,,,,,,,
2020,11,22,07,17,00,193.9,,,,,,,,,,,,,,
2020,11,22,07,18,00,196.4,,,,,,,,,,,,,,
2020,11,22,07,19,00,210.7,,,,,,,,,,,,,,
2020,11,22,07,20,00,259.6,,,,,,,,,,,,,,
2020,11,22,07,21,00,240.0,,,,,,,,,,,,,,
2020,11,22,07,22,00,223.7,,,,,,,,,,,,,,
2020,11,22,07,23,00,201.3,,,,,,,,,,,,,,
2020,11,22,07,24,00,177.2,,,,,,,,,,,,,,
2020,11,22,07,25,00,155.2,,,,,,,,,,,,,,
2020,11,22,07,26,00,151.6,,,,,,,,,,,,,,
2020,11,22,07,27,00,151.9,,,,,,,,,,,,,,
2020,11,22,07,28,00,151.3,,,,,,,,,,,,,,
2020,11,22,07,29,00,149.4,,,,,,,,,,,,,,
2020,11,22,07,30,00,139.0,,,,,,,,,,,,,,
2020,11,22,07,31,00,138.0,,,,,,,,,,,,,,
2020,11,22,07,32,00,138.6,,,,,,,,,,,,,,
2020,11,22,07,33,00,137.2,,,,,,,,,,,,,,
2020,11,22,07,34,00,138.0,,,,,,,,,,,,,,
2020,11,22,07,35,00,137.8,,,,,,,,,,,,,,
2020,11,22,07,36,00,140.2,,,,,,,,,,,,,,
2020,11,22,07,37,00,150.1,,,,,,,,,,,,,,
2020,11,22,07,38,00,161.1,,,,,,,,,,,,,,
2020,11,22,07,39,00,170.2,,,,,,,,,,,,,,
2020,11,22,07,40,00,181.1,,,,,,,,,,,,,,
2020,11,22,07,41,00,185.0,,,,,,,,,,,,,,
2020,11,22,07,42,00,169.6,,,,,,,,,,,,,,
2020,11,22,07,43,00,181.9,,,,,,,,,,,,,,
2020,11,22,07,44,00,204.3,,,,,,,,,,,,,,
2020,11,22,07,45,00,204.5,,,,,,,,,,,,,,
2020,11,22,07,46,00,187.5,,,,,,,,,,,,,,
2020,11,22,07,47,00,167.6,,,,,,,,,,,,,,
2020,11,22,07,48,00,176.8,,,,,,,,,,,,,,
2020,11,22,07,49,00,202.3,,,,,,,,,,,,,,
2020,11,22,07,50,00,248.5,,,,,,,,,,,,,,
2020,11,22,07,51,00,251.2,,,,,,,,,,,,,,
2020,11,22,07,52,00,234.9,,,,,,,,,,,,,,
2020,11,22,07,53,00,215.0,,,,,,,,,,,,,,
2020,11,22,07,54,00,233.6,,,,,,,,,,,,,,
2020,11,22,07,55,00,254.7,,,,,,,,,,,,,,
2020,11,22,07,56,00,264.3,,,,,,,,,,,,,,
2020,11,22,07,57,00,244.8,,,,,,,,,,,,,,
2020,11,22,07,58,00,204.8,,,,,,,,,,,,,,
2020,11,22,07,59,00,202.6,,,,,,,,,,,,,,
2020,11,22,08,00,00,231.2,,,,,,,,,,,,,,
2020,11,22,08,01,00,188.5,,,,,,,,,,,,,,
2020,11,22,08,02,00,184.2,,,,,,,,,,,,,,
2020,11,22,08,03,00,194.3,,,,,,,,,,,,,,
2020,11,22,08,04,00,197.9,,,,,,,,,,,,,,
2020,11,22,08,05,00,202.3,,,,,,,,,,,,,,
2020,11,22,08,06,00,218.6,,,,,,,,,,,,,,
2020,11,22,08,07,00,251.1,,,,,,,,,,,,,,
2020,11,22,08,08,00,244.5,,,,,,,,,,,,,,
2020,11,22,08,09,00,252.2,,,,,,,,,,,,,,
2020,11,22,08,10,00,251.8,,,,,,,,,,,,,,
2020,11,22,08,11,00,279.6,,,,,,,,,,,,,,
2020,11,22,08,12,00,264.1,,,,,,,,,,,,,,
2020,11,22,08,13,00,281.5,,,,,,,,,,,,,,
2020,11,22,08,14,00,288.6,,,,,,,,,,,,,,
2020,11,22,08,15,00,305.7,,,,,,,,,,,,,,
2020,11,22,08,16,00,280.4,,,,,,,,,,,,,,
2020,11,22,08,17,00,251.1,,,,,,,,,,,,,,
2020,11,22,08,18,00,248.9,,,,,,,,,,,,,,
2020,11,22,08,19,00,270.1,,,,,,,,,,,,,,
2020,11,22,08,20,00,255.4,,,,,,,,,,,,,,
2020,11,22,08,21,00,265.2,,,,,,,,,,,,,,
2020,11,22,08,22,00,297.2,,,,,,,,,,,,,,
2020,11,22,08,23,00,274.8,,,,,,,,,,,,,,
2020,11,22,08,24,00,259.2,,,,,,,,,,,,,,
2020,11,22,08,25,00,272.7,,,,,,,,,,,,,,
2020,11,22,08,26,00,276.7,,,,,,,,,,,,,,
2020,11,22,08,27,00,270.7,,,,,,,,,,,,,,
2020,11,22,08,28,00,263.8,,,,,,,,,,,,,,
2020,11,22,08,29,00,256.1,,,,,,,,,,,,,,
2020,11,22,08,30,00,237.0,,,,,,,,,,,,,,
2020,11,22,08,31,00,231.8,,,,,,,,,,,,,,
2020,11,22,08,32,00,237.1,,,,,,,,,,,,,,
2020,11,22,08,33,00,276.7,,,,,,,,,,,,,,
2020,11,22,08,34,00,273.7,,,,,,,,,,,,,,
2020,11,22,08,35,00,258.6,,,,,,,,,,,,,,
2020,11,22,08,36,00,255.4,,,,,,,,,,,,,,
2020,11,22,08,37,00,230.8,,,,,,,,,,,,,,
2020,11,22,08,38,00,268.7,,,,,,,,,,,,,,
2020,11,22,08,39,00,279.9,,,,,,,,,,,,,,
2020,11,22,08,40,00,283.6,,,,,,,,,,,,,,
2020,11,22,08,41,00,291.2,,,,,,,,,,,,,,
2020,11,22,08,42,00,297.6,,,,,,,,,,,,,,
2020,11,22,08,43,00,289.2,,,,,,,,,,,,,,
2020,11,22,08,44,00,295.3,,,,,,,,,,,,,,
2020,11,22,08,45,00,275.6,,,,,,,,,,,,,,
2020,11,22,08,46,00,241.7,,,,,,,,,,,,,,
2020,11,22,08,47,00,232.7,,,,,,,,,,,,,,
2020,11,22,08,48,00,224.7,,,,,,,,,,,,,,
2020,11,22,08,49,00,202.3,,,,,,,,,,,,,,
2020,11,22,08,50,00,203.1,,,,,,,,,,,,,,
2020,11,22,08,51,00,200.8,,,,,,,,,,,,,,
2020,11,22,08,52,00,208.3,,,,,,,,,,,,,,
2020,11,22,08,53,00,182.5,,,,,,,,,,,,,,
2020,11,22,08,54,00,178.1,,,,,,,,,,,,,,
2020,11,22,08,55,00,183.3,,,,,,,,,,,,,,
2020,11,22,08,56,00,196.5,,,,,,,,,,,,,,
2020,11,22,08,57,00,222.1,,,,,,,,,,,,,,
2020,11,22,08,58,00,234.2,,,,,,,,,,,,,,
2020,11,22,08,59,00,218.9,,,,,,,,,,,,,,
2020,11,22,09,00,00,243.7,,,,,,,,,,,,,,
2020,11,22,09,01,00,279.0,,,,,,,,,,,,,,
2020,11,22,09,02,00,277.0,,,,,,,,,,,,,,
2020,11,22,09,03,00,268.0,,,,,,,,,,,,,,
2020,11,22,09,04,00,288.5,,,,,,,,,,,,,,
2020,11,22,09,05,00,279.9,,,,,,,,,,,,,,
2020,11,22,09,06,00,270.9,,,,,,,,,,,,,,
2020,11,22,09,07,00,251.1,,,,,,,,,,,,,,
2020,11,22,09,08,00,257.3,,,,,,,,,,,,,,
2020,11,22,09,09,00,260.0,,,,,,,,,,,,,,
2020,11,22,09,10,00,262.4,,,,,,,,,,,,,,
2020,11,22,09,11,00,260.6,,,,,,,,,,,,,,
2020,11,22,09,12,00,283.4,,,,,,,,,,,,,,
2020,11,22,09,13,00,322.1,,,,,,,,,,,,,,
2020,11,22,09,14,00,320.1,,,,,,,,,,,,,,
2020,11,22,09,15,00,317.3,,,,,,,,,,,,,,
2020,11,22,09,16,00,256.0,,,,,,,,,,,,,,
2020,11,22,09,17,00,239.1,,,,,,,,,,,,,,
2020,11,22,09,18,00,250.8,,,,,,,,,,,,,,
2020,11,22,09,19,00,270.7,,,,,,,,,,,,,,
2020,11,22,09,20,00,313.2,,,,,,,,,,,,,,
2020,11,22,09,21,00,332.7,,,,,,,,,,,,,,
2020,11,22,09,22,00,252.8,,,,,,,,,,,,,,
2020,11,22,09,23,00,243.5,,,,,,,,,,,,,,
2020,11,22,09,24,00,282.6,,,,,,,,,,,,,,
2020,11,22,09,25,00,286.2,,,,,,,,,,,,,,
2020,11,22,09,26,00,283.1,,,,,,,,,,,,,,
2020,11,22,09,27,00,273.1,,,,,,,,,,,,,,
2020,11,22,09,28,00,257.1,,,,,,,,,,,,,,
2020,11,22,09,29,00,260.4,,,,,,,,,,,,,,
2020,11,22,09,30,00,226.7,,,,,,,,,,,,,,
2020,11,22,09,31,00,245.7,,,,,,,,,,,,,,
2020,11,22,09,32,00,274.4,,,,,,,,,,,,,,
2020,11,22,09,33,00,261.0,,,,,,,,,,,,,,
2020,11,22,09,34,00,235.0,,,,,,,,,,,,,,
2020,11,22,09,35,00,235.7,,,,,,,,,,,,,,
2020,11,22,09,36,00,235.7,,,,,,,,,,,,,,
2020,11,22,09,37,00,224.1,,,,,,,,,,,,,,
2020,11,22,09,38,00,200.7,,,,,,,,,,,,,,
2020,11,22,09,39,00,193.3,,,,,,,,,,,,,,
2020,11,22,09,40,00,212.6,,,,,,,,,,,,,,
2020,11,22,09,41,00,273.0,,,,,,,,,,,,,,
2020,11,22,09,42,00,267.0,,,,,,,,,,,,,,
2020,11,22,09,43,00,262.1,,,,,,,,,,,,,,
2020,11,22,09,44,00,283.8,,,,,,,,,,,,,,